Location: Tafessasset
(32.5899°N, 5.4824°W)
Time: 10:19:29
(UTC+00:00)

STARLINK-1042 - Pass Details

Date: 18 February 2020
Orbit: 548 x 551 km, 53.0° (Epoch: 29 March)

Event Time Altitude Azimuth Distance (km) Brightness Sun altitude
Exits shadow 05:51:37 27° 296° (WNW) 1,075 4.6 -15.6°
Maximum altitude 05:53:38 55° 230° (SW) 664 3.7 -15.2°
Drops below altitude 10° 05:57:40 10° 152° (SSE) 1,815 6.7 -14.3°
Sets 05:59:55 0° 148° (SSE) 2,705 7.7 -13.8°
